Regional Weather Roundup
Issued by NWS

Home | Current Version | Previous Version | Graphics & Text | Print | Product List | Glossary On
Versions: 1 2 3 4 5 6 7 8 9 10 11 12 13 14 15 16 17 18 19 20 21 22 23 24 25 26 27 28 29 30 31 32 33 34 35 36 37 38 39 40 41 42 43 44 45 46 47 48 49 50
000
ASUS43 KFSD 031002
RWRSD

WEATHER ROUNDUP FOR SOUTH DAKOTA
NATIONAL WEATHER SERVICE SIOUX FALLS SD
500 AM CDT SUN MAY 03 2015

NOTE: "FAIR" INDICATES FEW OR NO CLOUDS BELOW 12,000 FEET WITH NO
SIGNIFICANT WEATHER AND/OR OBSTRUCTIONS TO VISIBILITY.


SDZ001>005-009-010-012>017-031100-
NORTHWEST AND NORTH CENTRAL SOUTH DAKOTA

CITY           SKY/WX    TMP DP  RH WIND       PRES   REMARKS
BUFFALO          N/A     51  37  58 NE15      29.81R
FAITH            N/A     48  34  58 N14       29.82R
MOBRIDGE       CLEAR     54  38  54 N13       29.76R
$$

SDZ012>016-024>037-041>051-057-063-072>074-031100-
SOUTHWEST AND SOUTH CENTRAL SOUTH DAKOTA

CITY           SKY/WX    TMP DP  RH WIND       PRES   REMARKS
RAPID CTY ARPT MOCLDY    55  31  39 N17       29.81R
PIERRE         PTCLDY    49  33  54 NW9       29.69R
CUSTER         MOCLDY    41  28  60 N5        29.88S
ELLSWORTH AFB  MOCLDY    56  30  37 N21       29.81R
PHILIP         MOCLDY    47  31  53 N14       29.73S
PINE RIDGE     PTCLDY    42  36  79 CALM      29.76S
WINNER         FAIR      57  39  51 SW6       29.68F
$$

SDZ004>011-016>023-039-040-031100-
NORTHEAST SOUTH DAKOTA

CITY           SKY/WX    TMP DP  RH WIND       PRES   REMARKS
ABERDEEN       CLEAR     49  45  86 N7        29.68R
WATERTOWN      PTCLDY    56  52  86 S8        29.68F
BROOKINGS      MOCLDY    57  54  88 SE3       29.72R
SISSETON         N/A     55  51  86 SW7       29.67S
$$

SDZ017-020-022-023-036>040-048>070-031100-
SOUTHEAST SOUTH DAKOTA

CITY           SKY/WX    TMP DP  RH WIND       PRES   REMARKS
SIOUX FALLS    CLOUDY    59  53  80 CALM      29.70R
HURON          PTCLDY    59  54  83 S12       29.66S
MITCHELL       PTCLDY    58  54  86 SE10      29.69R
YANKTON        PTCLDY    66  50  55 S20G25    29.66S
$$

ABBREVIATIONS USED IN REMARKS
   TC - TEMPERATURE IN CELSIUS
  WCI - WIND CHILL INDEX
   HX - HEAT INDEX
  VSB - VISIBILITY




USA.gov is the U.S. government's official web portal to all federal, state and local government web resources and services.